[[{"header":{"parameterUnit":"m.s-1","parameterCategory":2,"la1":30.2992,"la2":30.254,"lo1":-89.0895,"lo2":-89.0443,"dy":0.0025,"dx":0.0025,"nx":19,"ny":19,"refTime":"2026-04-09T09:00:00:Z","depth":"0","parameterNumber":2,"parameterNumberName":"U-component_of_CURRENTS"},"data":[0,0,0,0.1846,0.1845,0.181,0.1809,0.1794,0.1794,0,0,0,0,0,0,0,0,0,0,0,0.1856,0.1856,0.1846,0.1845,0.181,0.1809,0.1794,0.1794,0,0,0,0,0,0,0,0,0,0,0,0.1856,0.1856,0.1856,0.1845,0.181,0.1809,0.1794,0.1811,0,0,0,0,0,0,0,0,0,0,0.1841,0.1854,0.1856,0.1856,0.1845,0.181,0.1809,0.1812,0.181,0.1821,0,0.1818,0,0.181,0.1794,0.1794,0,0,0,0.1837,0.1855,0.1843,0.1856,0.1845,0.181,0.1824,0.181,0.1809,0.1819,0.1817,0.1817,0.181,0.1794,0.1794,0.1797,0.1797,0,0,0.1839,0.1852,0.1844,0.1842,0.184,0.1825,0.1823,0.1809,0.1812,0.1817,0.1816,0.181,0.1794,0.1794,0.1797,0.1797,0,0,0,0.185,0.1853,0.1841,0.1843,0.1837,0.1824,0.1821,0.1812,0.1807,0.1816,0.181,0.1794,0.1794,0.1797,0.1797,0.1806,0,0,0,0.1851,0.186,0.1842,0.1849,0.1837,0.1822,0.1825,0.1808,0.1806,0.181,0.1794,0.1794,0.1797,0.1797,0.1805,0.1784,0,0,0,0.1857,0.1861,0.1857,0.185,0.1838,0.1821,0.1815,0.1807,0.1803,0.1794,0.1794,0.1797,0.1797,0.1805,0.1785,0.1768,0,0,0,0.187,0.1856,0.1858,0.185,0.1838,0.1833,0.1815,0.1817,0.1813,0.1794,0.1797,0.1797,0.1805,0.1785,0.1769,0.1695,0.1687,0,0,0.1855,0.1855,0.1851,0.1852,0.1845,0.1837,0.183,0.1819,0.1813,0.1803,0.1802,0.1805,0.1785,0.1768,0.1695,0.1687,0,0,0,0.1849,0.1843,0.1845,0.1842,0.1845,0.183,0.1833,0.1823,0.1808,0.1811,0.1803,0.1789,0.1779,0.1736,0.1729,0.148,0.1797,0.1797,0.1797,0.1827,0.1832,0.1823,0.1828,0.1831,0.1832,0.1818,0.1802,0.182,0.1813,0.1796,0.1784,0.1739,0.1733,0.1478,0.1808,0.1808,0.1808,0.1808,0.1798,0.1778,0.1798,0.1788,0.1791,0.1791,0.1787,0.1794,0.1779,0.1791,0.1782,0.1745,0.1726,0.1456,0.1808,0.1808,0.1808,0.1808,0.1808,0.1766,0.175,0.1762,0.175,0.1734,0.1746,0.1708,0.1733,0.1763,0.176,0.1711,0.171,0.1471,0.1766,0.1766,0.1766,0.1766,0.1766,0.1766,0.1713,0.1721,0.1694,0.17,0.167,0.1655,0.1661,0.1663,0.1677,0.169,0.169,0.142,0.1771,0.177,0.1763,0.1764,0.1764,0.1764,0.1764,0.164,0.1661,0.1601,0.1575,0.1521,0.1452,0.151,0.151,0.1543,0.1538,0.1288,0.1648,0.163,0.1634,0.163,0.1587,0.1587,0.1587,0.1587,0.1583,0.1598,0.1486,0.1409,0.1352,0.1333,0.1226,0.1237,0.1173,0.1065,0.1073,0.1034,0.1052,0.0998,0.1016,0.0999,0.0796,0.0795,0.0794,0.1529,0.1498,0.1392,0.1332,0.1252,0.1193,0.1028,0.0859,0.0748,0.0737,0.0734,0.0767,0.069,0.0739,0.0644,0.069,0.066,0,0]},{"header":{"parameterUnit":"m.s-1","parameterCategory":2,"la1":30.2992,"la2":30.254,"lo1":-89.0895,"lo2":-89.0443,"dy":0.0025,"dx":0.0025,"nx":19,"ny":19,"refTime":"2026-04-09T09:00:00:Z","depth":"0","parameterNumber":3,"parameterNumberName":"V-component_of_CURRENTS"},"data":[0,0,0,-0.0439,-0.0437,-0.0332,-0.0331,-0.0111,-0.0109,0,0,0,0,0,0,0,0,0,0,0,-0.0478,-0.0477,-0.0439,-0.0437,-0.0332,-0.0331,-0.0111,-0.0109,0,0,0,0,0,0,0,0,0,0,0,-0.0478,-0.0477,-0.0477,-0.0437,-0.0332,-0.0331,-0.0112,-0.021,0,0,0,0,0,0,0,0,0,0,-0.0321,-0.0381,-0.0477,-0.0477,-0.0436,-0.0332,-0.0331,-0.0215,-0.0203,-0.0137,0,-0.0131,0,-0.0116,-0.0093,-0.0092,0,0,0,-0.0425,-0.0391,-0.0356,-0.0477,-0.0435,-0.0333,-0.0376,-0.0209,-0.0196,-0.0122,-0.0128,-0.012,-0.0112,-0.0092,-0.009,0.0109,0.0109,0,0,-0.0431,-0.0457,-0.0366,-0.0349,-0.0418,-0.038,-0.0373,-0.0202,-0.0193,-0.0127,-0.0115,-0.0108,-0.009,-0.0088,0.0109,0.0109,0,0,0,-0.0456,-0.0461,-0.0432,-0.0357,-0.0345,-0.0377,-0.0369,-0.0201,-0.019,-0.0113,-0.0106,-0.0089,-0.0086,0.0108,0.0109,0.0156,0,0,0,-0.0459,-0.0476,-0.0436,-0.045,-0.035,-0.0285,-0.0373,-0.0202,-0.0183,-0.0107,-0.0089,-0.0083,0.0108,0.0108,0.0153,0.0187,0,0,0,-0.0481,-0.0479,-0.0469,-0.0451,-0.041,-0.0288,-0.0268,-0.0198,-0.0178,-0.0092,-0.0083,0.0107,0.0108,0.0151,0.0183,0.0217,0,0,0,-0.0507,-0.0476,-0.047,-0.0422,-0.0412,-0.0294,-0.0269,-0.0178,-0.0105,-0.0087,0.0108,0.0109,0.0151,0.0181,0.0215,0.0287,0.0305,0,0,-0.0477,-0.0474,-0.044,-0.0431,-0.0316,-0.0307,-0.0168,-0.0077,-0.0068,0.0059,0.0063,0.0154,0.0183,0.0217,0.0346,0.0362,0,0,0,-0.0435,-0.0402,-0.0368,-0.0303,-0.0234,-0.0133,-0.0061,-0.0031,0.0055,-0.0023,0.0162,0.0179,0.0199,0.0237,0.025,0.0245,0.0113,0.0113,0.0113,-0.0403,-0.0352,-0.0259,-0.0174,-0.0103,0.0004,0.0071,0.0128,0.0132,0.0154,0.0222,0.0289,0.0332,0.0342,0.0336,0.0221,0.0221,0.0221,0.0221,-0.0303,-0.0222,-0.0158,-0.0051,0.0043,0.0154,0.0245,0.0243,0.0317,0.028,0.0296,0.0292,0.0359,0.0347,0.0225,0.0224,0.0224,0.0223,0.0223,-0.0244,-0.0191,-0.0139,0.0017,0.0149,0.0247,0.0366,0.0384,0.0369,0.0394,0.0425,0.0424,0.041,0.0395,0.0395,0.0395,0.0396,0.0396,0.0396,-0.0195,-0.0134,-0.0033,0.0103,0.0189,0.0317,0.0428,0.0472,0.0509,0.0498,0.0498,0.0446,0.0342,0.033,0.0401,0.04,0.0399,0.0399,0.0399,-0.0068,-0.0072,0.0062,0.0147,0.033,0.0441,0.0526,0.0634,0.0659,0.0683,0.0617,0.0551,0.0545,0.0535,0.0528,0.0645,0.0645,0.0645,0.0645,0.0004,0.0019,0.0167,0.0277,0.0418,0.0508,0.0646,0.0733,0.0758,0.0757,0.0714,0.0686,0.0676,0.0674,0.0661,0.0655,0.0802,0.0802,0.0802,0.0113,0.0124,0.0234,0.0311,0.0451,0.0568,0.0673,0.0742,0.0796,0.0803,0.0696,0.0689,0.0637,0.0622,0.0606,0.0588,0.0572,0,0]}],[{"header":{"parameterUnit":"m.s-1","parameterCategory":2,"la1":30.2992,"la2":30.254,"lo1":-89.0895,"lo2":-89.0443,"dy":0.0025,"dx":0.0025,"nx":19,"ny":19,"refTime":"2026-04-09T09:00:00:Z","depth":"2","parameterNumber":2,"parameterNumberName":"U-component_of_CURRENTS"},"data":[0,0,0,0.1881,0.1881,0.1898,0.1898,0.1884,0.1884,0,0,0,0,0,0,0,0,0,0,0,0.1879,0.1879,0.1881,0.1881,0.1898,0.1898,0.1884,0.1884,0,0,0,0,0,0,0,0,0,0,0,0.1879,0.1879,0.1879,0.1882,0.1898,0.1898,0.1884,0.1881,0,0,0,0,0,0,0,0,0,0,0.187,0.1866,0.1879,0.1879,0.1882,0.1898,0.1898,0.1882,0.1881,0.1865,0,0.1869,0,0.1872,0.1882,0.1882,0,0,0,0.1885,0.1866,0.1875,0.1879,0.1882,0.1898,0.1892,0.1882,0.1882,0.1865,0.1869,0.1869,0.1872,0.1881,0.1881,0.1859,0.1859,0,0,0.1884,0.1877,0.1875,0.1875,0.1887,0.1891,0.1892,0.1882,0.1879,0.1869,0.1868,0.1871,0.1881,0.1881,0.1859,0.1859,0,0,0,0.1879,0.1876,0.1886,0.1875,0.1879,0.1892,0.1893,0.1879,0.1884,0.1868,0.1871,0.1881,0.1881,0.1859,0.1859,0.1866,0,0,0,0.1879,0.1873,0.1885,0.188,0.1879,0.1882,0.189,0.1885,0.1884,0.1871,0.1881,0.188,0.1859,0.1859,0.1866,0.1846,0,0,0,0.1878,0.1872,0.1876,0.188,0.1886,0.1883,0.1887,0.1885,0.1885,0.1882,0.188,0.1859,0.1859,0.1866,0.1846,0.1829,0,0,0,0.1868,0.188,0.1876,0.1885,0.1886,0.1905,0.1887,0.1899,0.19,0.1881,0.1859,0.1859,0.1866,0.1847,0.1829,0.1751,0.1743,0,0,0.188,0.1881,0.1887,0.1884,0.1909,0.1903,0.1906,0.1899,0.189,0.186,0.186,0.1866,0.1846,0.1829,0.175,0.1741,0,0,0,0.1889,0.1879,0.1891,0.1897,0.1921,0.191,0.1913,0.1899,0.1882,0.1889,0.1863,0.185,0.1839,0.1793,0.1787,0.1859,0.1859,0.1859,0.1859,0.1882,0.1889,0.1894,0.1899,0.1905,0.1913,0.1901,0.1875,0.1887,0.1878,0.1856,0.1843,0.1795,0.1789,0.1867,0.1867,0.1867,0.1867,0.1867,0.1886,0.1871,0.1871,0.1875,0.1876,0.1869,0.1855,0.186,0.1839,0.185,0.1841,0.1802,0.1781,0.1867,0.1867,0.1867,0.1867,0.1867,0.1867,0.1863,0.1853,0.1864,0.1849,0.1821,0.1819,0.1771,0.1794,0.1821,0.1819,0.1766,0.1765,0.1832,0.1824,0.1824,0.1824,0.1824,0.1824,0.1823,0.1841,0.1848,0.1809,0.18,0.1754,0.1723,0.1722,0.1723,0.1734,0.1745,0.1744,0.1828,0.1829,0.1829,0.1821,0.1821,0.1822,0.1822,0.1822,0.1769,0.1783,0.1707,0.1666,0.1588,0.1516,0.157,0.1566,0.1599,0.1591,0.1696,0.17,0.1682,0.1686,0.1682,0.1637,0.1637,0.1637,0.1637,0.1698,0.1713,0.1578,0.1487,0.1412,0.1398,0.1301,0.1306,0.1407,0.1439,0.1447,0.1443,0.1455,0.1424,0.1434,0.1425,0.1313,0.1312,0.1311,0.1621,0.1593,0.1464,0.1404,0.1312,0.1262,0.1121,0.1001,0.11,0.1298,0.138,0.1617,0.1634,0.1644,0.1617,0.1626,0.162,0,0]},{"header":{"parameterUnit":"m.s-1","parameterCategory":2,"la1":30.2992,"la2":30.254,"lo1":-89.0895,"lo2":-89.0443,"dy":0.0025,"dx":0.0025,"nx":19,"ny":19,"refTime":"2026-04-09T09:00:00:Z","depth":"2","parameterNumber":3,"parameterNumberName":"V-component_of_CURRENTS"},"data":[0,0,0,0.0343,0.0342,0.0299,0.0299,0.018,0.0179,0,0,0,0,0,0,0,0,0,0,0,0.0351,0.0351,0.0343,0.0342,0.0299,0.0299,0.018,0.0179,0,0,0,0,0,0,0,0,0,0,0,0.0351,0.0351,0.0351,0.0342,0.0299,0.0299,0.0181,0.0223,0,0,0,0,0,0,0,0,0,0,0.0271,0.0298,0.0351,0.0351,0.0342,0.0299,0.0299,0.0226,0.0221,0.0189,0,0.0195,0,0.0196,0.0172,0.0172,0,0,0,0.0319,0.0303,0.0294,0.0351,0.0342,0.03,0.0312,0.0223,0.0217,0.0182,0.0193,0.019,0.0194,0.0171,0.0171,0.0134,0.0134,0,0,0.0321,0.0333,0.0299,0.0291,0.0346,0.0314,0.0311,0.022,0.0217,0.0193,0.0187,0.0192,0.0171,0.017,0.0133,0.0134,0,0,0,0.0344,0.0335,0.0329,0.0295,0.0299,0.0313,0.031,0.022,0.022,0.0186,0.0191,0.017,0.0169,0.0133,0.0134,0.0179,0,0,0,0.0344,0.035,0.0331,0.0336,0.0302,0.027,0.0312,0.0226,0.0217,0.0192,0.017,0.0168,0.0133,0.0133,0.0176,0.0209,0,0,0,0.035,0.0351,0.0351,0.0337,0.033,0.0272,0.0265,0.0224,0.022,0.0172,0.0167,0.0132,0.0133,0.0175,0.0205,0.0236,0,0,0,0.0354,0.0363,0.0352,0.0363,0.0331,0.028,0.0266,0.0212,0.0168,0.0169,0.0133,0.0134,0.0174,0.0203,0.0234,0.0297,0.0313,0,0,0.0368,0.0365,0.0372,0.0361,0.035,0.0284,0.0261,0.0201,0.0179,0.0152,0.0152,0.0177,0.0205,0.0235,0.0352,0.0367,0,0,0,0.0378,0.0381,0.0378,0.037,0.0327,0.0285,0.0209,0.0215,0.0204,0.0166,0.0184,0.0201,0.0218,0.0252,0.0263,0.0138,0.0138,0.0138,0.0138,0.0402,0.039,0.0371,0.0335,0.0312,0.0271,0.0262,0.0252,0.0205,0.0228,0.0242,0.0304,0.0341,0.035,0.024,0.024,0.024,0.024,0.024,0.039,0.0357,0.0348,0.0313,0.0282,0.0254,0.0289,0.0295,0.0331,0.0296,0.031,0.0304,0.0366,0.0244,0.0243,0.0243,0.0243,0.0242,0.0242,0.0391,0.0352,0.0318,0.0266,0.0275,0.028,0.038,0.0396,0.038,0.0404,0.0428,0.0428,0.0333,0.0404,0.0404,0.0404,0.0404,0.0405,0.0405,0.0351,0.0313,0.0279,0.0241,0.0266,0.0337,0.0437,0.0479,0.0511,0.0497,0.0497,0.0359,0.0354,0.0343,0.0409,0.0409,0.0408,0.0408,0.0407,0.0278,0.0277,0.0282,0.0281,0.0346,0.044,0.0529,0.0628,0.0651,0.0671,0.0549,0.0544,0.0538,0.0528,0.0521,0.063,0.063,0.063,0.063,0.0242,0.0229,0.0271,0.0334,0.0423,0.05,0.0612,0.0659,0.0672,0.0646,0.0644,0.0612,0.0604,0.0597,0.0586,0.0579,0.0703,0.0702,0.0702,0.0166,0.0223,0.026,0.0334,0.0454,0.0547,0.0605,0.0588,0.0608,0.0698,0.0588,0.0649,0.0597,0.0586,0.0568,0.0554,0.0538,0,0]}],[{"header":{"parameterUnit":"m.s-1","parameterCategory":2,"la1":30.2992,"la2":30.254,"lo1":-89.0895,"lo2":-89.0443,"dy":0.0025,"dx":0.0025,"nx":19,"ny":19,"refTime":"2026-04-09T09:00:00:Z","depth":"4","parameterNumber":2,"parameterNumberName":"U-component_of_CURRENTS"},"data":[0,0,0,0.1056,0.1058,0.1169,0.117,0.1288,0.1289,0,0,0,0,0,0,0,0,0,0,0,0.1022,0.1022,0.1056,0.1058,0.1169,0.117,0.1288,0.1289,0,0,0,0,0,0,0,0,0,0,0,0.1021,0.1022,0.1023,0.1059,0.1169,0.117,0.1288,0.1211,0,0,0,0,0,0,0,0,0,0,0.1107,0.1076,0.1022,0.1023,0.1059,0.1169,0.117,0.1208,0.1216,0.1228,0,0.1248,0,0.1266,0.1296,0.1296,0,0,0,0.1065,0.1069,0.1098,0.1023,0.106,0.1169,0.1121,0.1213,0.1222,0.1239,0.125,0.1255,0.1268,0.1296,0.1297,0.14,0.1401,0,0,0.1059,0.1044,0.1092,0.1104,0.1092,0.1118,0.1125,0.1219,0.1229,0.125,0.1257,0.127,0.1297,0.1298,0.14,0.14,0,0,0,0.1037,0.1039,0.1067,0.1099,0.1119,0.1121,0.1129,0.1226,0.1235,0.1259,0.1272,0.1298,0.1299,0.1399,0.14,0.1416,0,0,0,0.1033,0.1026,0.1064,0.1056,0.1117,0.1176,0.1133,0.1228,0.1239,0.1271,0.1298,0.13,0.1399,0.14,0.1415,0.1412,0,0,0,0.1016,0.1024,0.1037,0.1055,0.1099,0.1175,0.1191,0.1231,0.1247,0.1296,0.13,0.1399,0.14,0.1413,0.1411,0.1426,0,0,0,0.0995,0.1014,0.1037,0.1064,0.1098,0.1156,0.119,0.1247,0.1288,0.1298,0.1399,0.14,0.1413,0.141,0.1425,0.1234,0,0,0,0.1002,0.1014,0.1029,0.1052,0.1092,0.1141,0.1203,0.1275,0.1307,0.1366,0.137,0.1415,0.1411,0.1426,0.129,0,0,0,0,0.102,0.103,0.1046,0.108,0.1124,0.1187,0.1253,0.1293,0.1375,0.1335,0.1429,0.1426,0.1435,0.1321,0.1404,0.1404,0.1404,0.1404,0.1404,0.0998,0.1026,0.1052,0.1097,0.1142,0.1228,0.1286,0.1356,0.1383,0.1427,0.145,0.1486,0.1368,0.1467,0.1467,0.1467,0.1467,0.1467,0.1467,0.0993,0.1006,0.1058,0.1098,0.1167,0.1234,0.1341,0.1385,0.147,0.148,0.1489,0.1359,0.1469,0.1469,0.1469,0.1468,0.1468,0.1468,0.1468,0.0965,0.0976,0.1016,0.1083,0.1162,0.1254,0.1326,0.1415,0.1481,0.1507,0.1392,0.1498,0.1484,0.152,0.152,0.152,0.152,0.152,0.152,0.0917,0.0956,0.0993,0.1068,0.112,0.1203,0.1327,0.1365,0.1445,0.1386,0.1516,0.1503,0.1502,0.1488,0.1521,0.1521,0.1521,0.1521,0.152,0.0879,0.0908,0.0953,0.0999,0.1089,0.1126,0.125,0.1262,0.1288,0.1267,0.1319,0.1329,0.1304,0.1307,0.1285,0.1259,0.1257,0.1254,0,0.0848,0.0865,0.0922,0.0968,0.1001,0.1079,0.105,0.1099,0.1164,0.1129,0.1316,0.1377,0.1382,0.1356,0.1355,0.1329,0,0,0,0.0827,0.0852,0.0875,0.0927,0.0955,0.0963,0.1035,0.1008,0.115,0.1099,0.1195,0.1211,0.139,0.1524,0.1509,0.1507,0.1483,0,0]},{"header":{"parameterUnit":"m.s-1","parameterCategory":2,"la1":30.2992,"la2":30.254,"lo1":-89.0895,"lo2":-89.0443,"dy":0.0025,"dx":0.0025,"nx":19,"ny":19,"refTime":"2026-04-09T09:00:00:Z","depth":"4","parameterNumber":3,"parameterNumberName":"V-component_of_CURRENTS"},"data":[0,0,0,0.0367,0.0368,0.0378,0.0378,0.0346,0.0346,0,0,0,0,0,0,0,0,0,0,0,0.0366,0.0366,0.0367,0.0368,0.0378,0.0378,0.0346,0.0346,0,0,0,0,0,0,0,0,0,0,0,0.0366,0.0366,0.0367,0.0368,0.0378,0.0378,0.0346,0.0349,0,0,0,0,0,0,0,0,0,0,0.0345,0.0353,0.0366,0.0367,0.0368,0.0378,0.0378,0.035,0.0349,0.0329,0,0.0335,0,0.0338,0.0343,0.0343,0,0,0,0.0366,0.0354,0.0354,0.0367,0.0368,0.0378,0.0373,0.035,0.0349,0.0328,0.0335,0.0334,0.0337,0.0342,0.0342,0.031,0.031,0,0,0.0366,0.0368,0.0355,0.0354,0.0375,0.0372,0.0373,0.035,0.0351,0.0335,0.0333,0.0337,0.0342,0.0342,0.031,0.031,0,0,0,0.0365,0.0367,0.0369,0.0355,0.0359,0.0373,0.0373,0.0352,0.0352,0.0333,0.0336,0.0342,0.0341,0.031,0.031,0.0341,0,0,0,0.0365,0.0367,0.0369,0.037,0.036,0.0362,0.0376,0.0354,0.0351,0.0337,0.0342,0.0341,0.031,0.031,0.034,0.0354,0,0,0,0.0365,0.0367,0.0369,0.037,0.0375,0.0363,0.0362,0.0354,0.0353,0.0342,0.0341,0.031,0.031,0.0339,0.0353,0.0363,0,0,0,0.0364,0.0375,0.0369,0.0385,0.0375,0.0389,0.0362,0.0371,0.0367,0.0342,0.031,0.031,0.0339,0.0352,0.0362,0.0343,0,0,0,0.0377,0.0377,0.0386,0.0382,0.0402,0.0388,0.0395,0.0377,0.0355,0.0315,0.0314,0.034,0.0353,0.0363,0.0341,0,0,0,0,0.0391,0.0396,0.0403,0.0413,0.0419,0.0414,0.0401,0.0384,0.0357,0.0352,0.0331,0.0338,0.0343,0.0329,0.031,0.031,0.031,0.031,0.031,0.0405,0.041,0.0425,0.043,0.0436,0.043,0.0422,0.039,0.0372,0.0362,0.0356,0.0375,0.036,0.0347,0.0347,0.0347,0.0347,0.0348,0.0348,0.0419,0.0421,0.043,0.0445,0.0442,0.0444,0.0421,0.041,0.039,0.0369,0.0373,0.0354,0.035,0.035,0.0349,0.0349,0.0349,0.0349,0.0349,0.042,0.0418,0.0433,0.0442,0.0449,0.0446,0.045,0.0434,0.0414,0.042,0.04,0.0393,0.0398,0.0424,0.0424,0.0424,0.0424,0.0424,0.0424,0.0405,0.0417,0.0419,0.0436,0.0442,0.0456,0.0467,0.0471,0.0458,0.043,0.0431,0.0401,0.0398,0.0402,0.0426,0.0426,0.0426,0.0425,0.0425,0.0381,0.039,0.0387,0.0395,0.042,0.0439,0.0469,0.0482,0.0483,0.0468,0.043,0.0429,0.0416,0.0413,0.0416,0.0446,0.0446,0.0446,0,0.0355,0.0363,0.0348,0.0355,0.038,0.042,0.0444,0.0466,0.045,0.0429,0.0466,0.0422,0.0421,0.0404,0.0401,0.0405,0,0,0,0.0324,0.0324,0.0305,0.0325,0.0356,0.0404,0.045,0.0447,0.0449,0.0465,0.0442,0.0443,0.0461,0.0431,0.0409,0.0406,0.041,0,0]}]]